Location: Sternwarte ZA, Rosenfeld-Brittheim
(48.2889°N, 8.6789°E)
Time: 07:06:27
(UTC+01:00)

ISS - Pass Details

Date: 03 December 2019
Orbit: 411 x 421 km, 51.6° (Epoch: 15 December)

Event Time Altitude Azimuth Distance (km) Brightness Sun altitude
Rises 17:35:12 0° 279° (W) 2,356 1.2 -10.0°
Reaches altitude 10° 17:37:21 10° 285° (WNW) 1,495 -0.1 -10.4°
Maximum altitude 17:40:35 45° 360° (N) 584 -3.2 -10.9°
Enters shadow 17:42:48 18° 67° (ENE) 1,104 -2.3 -11.2°
